Regional Weather Roundup
Issued by NWS Kansas City/Pleasant Hill, MO

Home | Current Version | Previous Version | Graphics & Text | Print | Product List | Glossary Off
Versions: 1 2 3 4 5 6 7 8 9 10 11 12 13 14 15 16 17 18 19 20 21 22 23 24 25 26 27 28 29 30 31 32 33 34 35 36 37 38 39 40 41 42 43 44 45 46 47 48 49 50

000
ASUS43 KEAX 201610
RWREAX

WEATHER ROUNDUP FOR EASTERN KANSAS AND NORTHWEST MISSOURI
NATIONAL WEATHER SERVICE KANSAS CITY/PLEASANT HILL MO
1100 AM CDT SAT SEP 20 2014

KSZ040-057-103>105-MOZ028-029-037-043-201700-
...KANSAS CITY METROPOLITAN AREA...

CITY           SKY/WX    TMP DP  RH WIND       PRES   REMARKS
K.C. INTL      PTSUNNY   77  70  79 SW10      29.99F
K.C. DOWNTOWN  MOSUNNY   81  70  69 SW12      29.98F
LEES SUMMIT    SUNNY     78  68  71 SW14      30.02F
OLATHE - IXD   SUNNY     78  70  76 S12       30.01F
OLATHE - OJC   SUNNY     78  69  73 SW12      30.01F
LAWRENCE       SUNNY     79  69  71 SW8       29.99F

$$

MOZ001>008-011>017-020>025-030>033-038>040-044>046-053-054-201700-
...NORTHERN AND CENTRAL MISSOURI...

CITY           SKY/WX    TMP DP  RH WIND       PRES   REMARKS
ST. JOSEPH     CLOUDY    76  69  79 SW15      29.96F
MOSBY          PTSUNNY   77  68  73 SW10      29.98F
WHITEMAN AFB   SUNNY     78  70  75 SW13      30.02S
CLINTON        SUNNY     79  72  78 SW8       30.05S
SEDALIA        SUNNY     79  68  69 SW14      30.04R
WARSAW         NOT AVBL
MARSHALL       MOSUNNY   82  70  65 SW12G18   30.01F
CHILLICOTHE      N/A     73  69  87 VRB5      29.98S
MOBERLY        MOSUNNY   77  66  69 SW17      29.99F
KIRKSVILLE     CLOUDY    71  67  87 SW10      29.97R FOG

$$

MOZ041-047>049-056>058-063>065-088>090-097-201700-
...EASTERN AND SOUTHERN MISSOURI...

CITY           SKY/WX    TMP DP  RH WIND       PRES   REMARKS
ST. LOUIS INTL PTSUNNY   79  68  69 W12       30.04S
SPIRIT OF STL  MOSUNNY   78  68  71 W15       30.02F
COLUMBIA       MOSUNNY   78  71  79 SW10      30.04S
JEFFERSON CITY MOSUNNY   79  69  71 W7        30.02F
MEXICO         SUNNY     82  73  74 SW12      30.02S
HANNIBAL       MOSUNNY   75  68  78 S15       29.96F HAZE
ROLLA          SUNNY     76  67  73 SW10      30.06R
LEBANON        SUNNY     81  66  61 SW14      30.09R
OSAGE BEACH    SUNNY     79  66  65 SW9       30.05F
SPRINGFIELD    SUNNY     77  68  73 SW10      30.08F
BRANSON        PTSUNNY   81  68  65 SW8       30.12R
NEVADA         MOSUNNY   75  70  83 SW12      30.06S
JOPLIN         SUNNY     78  70  76 SW14      30.07S
WEST PLAINS    MOSUNNY   78  67  68 SW9       30.12R

$$

IAZ060-094-KSZ022-034>040-054-083-096-NEZ052-066-093-201700-
...KANSAS...SOUTHEAST NEBRASKA AND IOWA...

CITY           SKY/WX    TMP DP  RH WIND       PRES   REMARKS
TOPEKA         SUNNY     81  71  71 SW9       29.98S
MANHATTAN      SUNNY     82  68  62 SW16      29.96F
EMPORIA        SUNNY     79  71  76 S10       30.02S
CHANUTE        CLOUDY    73  71  93 S10       30.06R FOG
WICHITA        MOSUNNY   81  67  62 SW10      30.02R
OMAHA          MOSUNNY   76  67  73 SW6       29.93S
LINCOLN        MOSUNNY   77  66  68 W5        29.97R
FALLS CITY     CLOUDY    73  68  84 S6        29.95F
LAMONI         CLOUDY    69  67  93 SW17      29.91F FOG
DES MOINES     CLOUDY    75  67  76 W12       29.89F

$$




USA.gov is the U.S. government's official web portal to all federal, state and local government web resources and services.